Tracking 25710 objects as of 4-Jul-2022
HD Live streaming from Space Station
objects crossing your sky now

ONEWEB-0120

Track ONEWEB-0120 now!
10-day predictions
ONEWEB-0120 is classified as:


NORAD ID: 47266
Int'l Code: 2020-100J
Perigee: 1,219.1 km
Apogee: 1,222.6 km
Inclination: 87.9 °
Period: 109.7 minutes
Semi major axis: 7591 km
RCS: Unknown
Launch date: December 18, 2020
Source: United Kingdom (UK)
Launch site: VOSTOCHNY COSMODROME (VOSTO)
aabbcc
Your satellite tracking list
Your tracking list is empty




NASA's NSSDC Master Catalog

Two Line Element Set (TLE):
1 47266U 20100J   22184.77046800  .00000106  00000-0  25912-3 0  9996
2 47266  87.8934 277.7433 0002292  93.4817 266.6574 13.12443418 75263
Source of the keplerian elements: AFSPC